Weather History for Leonardtown, MD

Change the Weather History Date:

Monday, November 26, 2012

  Actual Average (KNHK) Record (KNHK)
Temperature  
Mean Temperature 44 °F -  
Max Temperature 53 °F 58 °F 71 °F (1979)
Min Temperature 35 °F 38 °F 25 °F (2005)
Degree Days  
Heating Degree Days 21    
Moisture  
Dew Point 26 °F    
Average Humidity 53    
Maximum Humidity 81    
Minimum Humidity 30    
Precipitation  
Precipitation 0.00 in - - ()
Sea Level Pressure  
Sea Level Pressure 30.15 in    
Wind  
Wind Speed 2 mph (SE)    
Max Wind Speed 7 mph    
Max Gust Speed -    
Visibility 10 miles    
Events      
Averages and records for this station are not official NWS values.
T = Trace of Precipitation, MM = Missing Value Source: NWS Daily Summary

Daily Weather History Graph

Daily Weather History Graph

Search for Another Location

Airport:

Trip Planner

Search our weather history database for the weather conditions in past years. The results will help you decide how hot, cold, wet, or windy it might be!

Date:

Astronomy

Nov. 26, 2012 Rise Set
Actual Time 6:59 AM EST 4:47 PM EST
Civil Twilight 6:30 AM EST 5:16 PM EST
Nautical Twilight 5:58 AM EST 5:48 PM EST
Astronomical Twilight 5:26 AM EST 6:20 PM EST
Moon 3:37 PM EST (11/26) 5:08 AM EST (11/26)
Length of Visible Light 10h 45m
Length of Day
9h 47m
Waxing Gibbous, 97% of the Moon is Illuminated
Nov 26
Waxing Gibbous
Nov 28
Full
Dec 6
Last Quarter
Dec 13
New
Dec 20
First Quarter

Hourly Weather History & Observations

Time (EST) Temp. Windchill Dew Point Humidity Pressure Visibility Wind Dir Wind Speed Gust Speed Precip Events Conditions
12:15 AM 41.0 °F 37.1 °F 23.0 °F 49% 30.01 in 10.0 mi WSW 5.8 mph - N/A   Clear
12:36 AM 39.2 °F 35.9 °F 23.0 °F 52% 30.02 in 10.0 mi West 4.6 mph - N/A   Clear
12:57 AM 39.2 °F 37.0 °F 23.0 °F 52% 30.02 in 10.0 mi WSW 3.5 mph - N/A   Clear
1:19 AM 37.4 °F 34.9 °F 23.0 °F 56% 30.03 in 10.0 mi West 3.5 mph - N/A   Clear
1:40 AM 37.4 °F - 23.0 °F 56% 30.03 in 10.0 mi Calm Calm - N/A   Clear
2:01 AM 35.6 °F - 26.6 °F 70% 30.04 in 10.0 mi Calm Calm - N/A   Clear
2:23 AM 37.4 °F 34.9 °F 23.0 °F 56% 30.05 in 10.0 mi SW 3.5 mph - N/A   Clear
2:44 AM 37.4 °F - 23.0 °F 56% 30.05 in 10.0 mi Calm Calm - N/A   Clear
3:05 AM 37.4 °F 33.8 °F 24.8 °F 60% 30.06 in 10.0 mi West 4.6 mph - N/A   Clear
3:26 AM 37.4 °F 32.8 °F 24.8 °F 60% 30.07 in 10.0 mi West 5.8 mph - N/A   Clear
3:48 AM 37.4 °F - 23.0 °F 56% 30.06 in 10.0 mi Calm Calm - N/A   Clear
4:09 AM 37.4 °F - 23.0 °F 56% 30.07 in 10.0 mi Calm Calm - N/A   Mostly Cloudy
4:30 AM 37.4 °F - 26.6 °F 65% 30.08 in 10.0 mi Calm Calm - N/A   Overcast
4:52 AM 37.4 °F - 24.8 °F 60% 30.09 in 10.0 mi Calm Calm - N/A   Scattered Clouds
5:13 AM 37.4 °F - 28.4 °F 70% 30.09 in 10.0 mi Calm Calm - N/A   Clear
5:34 AM 35.6 °F - 28.4 °F 75% 30.09 in 10.0 mi Calm Calm - N/A   Clear
5:56 AM 37.4 °F - 26.6 °F 65% 30.10 in 10.0 mi Calm Calm - N/A   Clear
6:17 AM 37.4 °F - 26.6 °F 65% 30.11 in 10.0 mi Calm Calm - N/A   Clear
6:38 AM 35.6 °F - 28.4 °F 75% 30.12 in 10.0 mi Calm Calm - N/A   Clear
6:59 AM 35.6 °F - 26.6 °F 70% 30.13 in 10.0 mi Calm Calm - N/A   Clear
7:21 AM 35.6 °F - 28.4 °F 75% 30.15 in 10.0 mi Calm Calm - N/A   Clear
7:42 AM 35.6 °F - 28.4 °F 75% 30.16 in 10.0 mi Calm Calm - N/A   Clear
8:03 AM 37.4 °F - 28.4 °F 70% 30.16 in 10.0 mi Calm Calm - N/A   Clear
8:24 AM 41.0 °F - 28.4 °F 61% 30.16 in 10.0 mi Calm Calm - N/A   Clear
8:46 AM 44.6 °F - 21.2 °F 39% 30.17 in 10.0 mi Calm Calm - N/A   Clear
9:07 AM 44.6 °F - 21.2 °F 39% 30.18 in 7.0 mi Calm Calm - N/A   Clear
9:28 AM 46.4 °F - 21.2 °F 37% 30.19 in 10.0 mi Calm Calm - N/A   Clear
9:49 AM 50.0 °F - 21.2 °F 32% 30.19 in 10.0 mi Calm Calm - N/A   Clear
10:11 AM 50.0 °F - 21.2 °F 32% 30.20 in 10.0 mi Calm Calm - N/A   Clear
10:32 AM 50.0 °F - 21.2 °F 32% 30.20 in 10.0 mi Calm Calm - N/A   Clear
10:53 AM 50.0 °F - 23.0 °F 35% 30.20 in 10.0 mi North 3.5 mph - N/A   Clear
11:14 AM 50.0 °F - 23.0 °F 35% 30.19 in 10.0 mi NW 3.5 mph - N/A   Clear
11:35 AM 51.8 °F - 23.0 °F 33% 30.19 in 10.0 mi Calm Calm - N/A   Clear
11:57 AM 51.8 °F - 23.0 °F 33% 30.18 in 10.0 mi Calm Calm - N/A   Clear
12:18 PM 53.6 °F - 23.0 °F 30% 30.18 in 10.0 mi Calm Calm - N/A   Clear
1:00 PM 53.6 °F - 23.0 °F 30% 30.17 in 10.0 mi Calm Calm - N/A   Clear
1:22 PM 53.6 °F - 26.6 °F 35% 30.17 in 10.0 mi ESE 4.6 mph - N/A   Clear
1:43 PM 53.6 °F - 24.8 °F 33% 30.17 in 10.0 mi East 4.6 mph - N/A   Clear
2:04 PM 53.6 °F - 26.6 °F 35% 30.17 in 10.0 mi East 5.8 mph - N/A   Clear
2:25 PM 51.8 °F - 26.6 °F 38% 30.17 in 10.0 mi East 5.8 mph - N/A   Clear
2:47 PM 53.6 °F - 26.6 °F 35% 30.18 in 10.0 mi SE 5.8 mph - N/A   Clear
3:08 PM 53.6 °F - 26.6 °F 35% 30.18 in 10.0 mi SSE 4.6 mph - N/A   Clear
3:29 PM 51.8 °F - 28.4 °F 41% 30.18 in 10.0 mi East 4.6 mph - N/A   Clear
3:50 PM 50.0 °F - 28.4 °F 43% 30.18 in 10.0 mi East 6.9 mph - N/A   Clear
4:12 PM 50.0 °F - 28.4 °F 43% 30.19 in 10.0 mi ESE 5.8 mph - N/A   Clear
4:33 PM 50.0 °F - 26.6 °F 40% 30.19 in 10.0 mi ESE 4.6 mph - N/A   Clear
4:54 PM 46.4 °F 44.3 °F 26.6 °F 46% 30.19 in 10.0 mi ESE 4.6 mph - N/A   Clear
5:15 PM 44.6 °F - 26.6 °F 49% 30.19 in 10.0 mi Calm Calm - N/A   Clear
5:37 PM 42.8 °F - 28.4 °F 57% 30.21 in 10.0 mi Calm Calm - N/A   Clear
5:58 PM 42.8 °F - 28.4 °F 57% 30.22 in 10.0 mi Calm Calm - N/A   Clear
6:19 PM 41.0 °F - 28.4 °F 61% 30.22 in 10.0 mi Calm Calm - N/A   Clear
6:40 PM 42.8 °F 41.1 °F 28.4 °F 57% 30.22 in 10.0 mi ESE 3.5 mph - N/A   Clear
7:02 PM 41.0 °F - 28.4 °F 61% 30.22 in 10.0 mi Calm Calm - N/A   Clear
7:23 PM 41.0 °F - 28.4 °F 61% 30.22 in 10.0 mi Calm Calm - N/A   Clear
8:05 PM 41.0 °F - 28.4 °F 61% 30.23 in 10.0 mi Calm Calm - N/A   Clear
8:27 PM 41.0 °F 39.0 °F 30.2 °F 65% 30.23 in 10.0 mi SE 3.5 mph - N/A   Clear
8:48 PM 41.0 °F 39.0 °F 32.0 °F 70% 30.22 in 10.0 mi ESE 3.5 mph - N/A   Clear
9:09 PM 41.0 °F 39.0 °F 32.0 °F 70% 30.22 in 10.0 mi ESE 3.5 mph - N/A   Clear
9:31 PM 41.0 °F 39.0 °F 32.0 °F 70% 30.22 in 10.0 mi ESE 3.5 mph - N/A   Scattered Clouds
9:52 PM 42.8 °F - 32.0 °F 66% 30.22 in 10.0 mi Calm Calm - N/A   Mostly Cloudy
10:13 PM 42.8 °F - 32.0 °F 66% 30.22 in 10.0 mi Calm Calm - N/A   Mostly Cloudy
10:56 PM 37.4 °F - 32.0 °F 81% 30.22 in 10.0 mi Calm Calm - N/A   Mostly Cloudy
11:59 PM 39.2 °F - 33.8 °F 81% 30.21 in 10.0 mi Calm Calm - N/A   Overcast